Find Starlink 3226

NORAD ID: 49740 Int'l Des: 2021-115 Owner: SPXS Country: US Constellation: starlink operational
LEOCIRCULAR

当前视图

正在加载3D地球...

About Starlink 3226

Starlink 3226 (NORAD 49740) is a starlink constellation satellite (v1.5) launched Dec 2, 2021 by SPXS of US. It operates in LEO, CIRCULAR orbit with a mass of 290.00 kg.

即将过境

Passes for default location (London). Set your location on the main map for personalized predictions.

高度历史

Loading altitude history...

两行轨道根数

1 49740U 21115S 26263.68434482 .00000101 00000-0 15002-4 0 9996
2 49740 53.1608 338.9031 0001048 78.6927 281.4192 15.31700701265171
Epoch: Sep 20, 2026 • Age: 19 hours

当前状态

高度 473.0 km
远地点 / 近地点 N/A
速度 7.63 km/s
星下点 35.76°N, 54.6°W
发射日期 Dec 2, 2021
运行时间 4.7 years
类型 internet

技术详情

分类 Payload
质量 290.00 kg
干质量 270.00 kg
长度 0.20 m
跨度 9.00 m
形状 ? Box + pan
制造商 SPXS
平台类型 Starlink
阶段状态 In Orbit
所有者/国家 SPXS/US

Most Searched